STARLINK-1517 (45787 NORAD) Tracking and Keplerian Element Data

This shows tracking and keplerian element data for the satellite.

Feedback or suggestion? Click here.




ElementValue
Catalog45787
NameSTARLINK-1517
Epoch Orbit428
Epoch Day185.50001157
Epoch Year2020
RAAN197.5919
Inclination52.9975
Eccentricity0.0001169
Argument of Perigee101.4339
Mean Anonmoly253.5732
Mean Motion15.63367047
Decay Rate-0.00777881
L11 45787U 20038BK 20185.50001157 -.00777881 00000-0 -91130-2 0 9995
L22 45787 52.9975 197.5919 0001169 101.4339 253.5732 15.63367047 4282

Live tracking and technical data element details for STARLINK-1517 (NORAD 45787). STARLINK-1517 can be tracked NOW for your location showing map with azimuth and elevation plus other details from your city location.

Track the satellite on the map from your city or location and see movement details for azimuth, elevation, latitude, longitude, range, height, and movement on the map or in text.







IsCatalogInMostPopularTable: catalog: 45787, numindb: 8
Update: records affected: 1



GetName: 45787 STARLINK-1517

Hit Count: updated at: Sat, 04 Jul 2020 02:39:42 GMT